User: anonymous   Login
Location: Hylvaty SDH
(49.9612°N, 16.4057°E)
Time: 08:40:10
(UTC+01:00)
Language:

A-11 Canister half - Orbit

View from above orbital plane
View from above orbital plane
View from above satellite
View from above satellite

Ground track
Ground track

The orbit data is extracted from the following two-line orbital elements,

1    51U 60009C   20299.40517296 -.00000092  00000-0 -73522-4 0  9993
2    51  47.2135 305.3799 0106460 190.8000 169.0499 12.18273550679926
Epoch (UTC): 25 October 2020 09:43:26
Eccentricity: 0.0106460
inclination: 47.2135°
perigee height: 1515 km
apogee height: 1685 km
right ascension of ascending node: 305.3799°
argument of perigee: 190.8000°
revolutions per day: 12.18273550
mean anomaly at epoch: 169.0499°
orbit number at epoch: 67992

The dashed part of the orbit path shows where the satellite is in the earth's shadow,  

DLR